QPF
0.00 0.00 0.00 0.00 0.00 0.00 0.00 0.01 0.01 0.01 0.01 0.01 0.03 0.07 0.05 0.03 0.08 0.11 0.11 0.14 0.11 0.08 0.07 0.07 0.07 0.07 0.08 0.07 0.06 0.07 0.08 0.07 0.08 0.09 0.07 0.06 0.05 0.03 0.02 0.02 0.03 0.03 0.03 0.02
0.00 0.00 0.00 0.00 0.00 0.00 0.00 0.01 0.02 0.01 0.01 0.01 0.04 0.08 0.06 0.02 0.03 0.06 0.08 0.10 0.09 0.07 0.06 0.07 0.04 0.05 0.06 0.05 0.04 0.04 0.04 0.04 0.04 0.04 0.04 0.04 0.03 0.02 0.01 0.01 0.01 0.01 0.01 0.01
0.00 0.00 0.00 0.00 0.00 0.00 0.01 0.02 0.02 0.01 0.01 0.02 0.05 0.14 0.13 0.05 0.02 0.02 0.05 0.04 0.04 0.05 0.05 0.03 0.02 0.02 0.02 0.02 0.02 0.03 0.03 0.03 0.03 0.02 0.02 0.02 0.02 0.02 0.02 0.02 0.02 0.01 0.01 0.01
0.00 0.00 0.00 0.00 0.00 0.00 0.01 0.00 0.01 0.00 0.02 0.09 0.08 0.16 0.17 0.07 0.03 0.02 0.03 0.02 0.03 0.03 0.02 0.02 0.02 0.01 0.01 0.01 0.01 0.01 0.02 0.02 0.02 0.02 0.03 0.02 0.01 0.01 0.01 0.01 0.01 0.01 0.00 0.01
0.00 0.00 0.00 0.00 0.00 0.00 0.01 0.00 0.00 0.00 0.02 0.08 0.09 0.08 0.13 0.08 0.07 0.06 0.03 0.02 0.03 0.04 0.02 0.01 0.01 0.00 0.00 0.00 0.00 0.01 0.02 0.02 0.01 0.02 0.02 0.02 0.02 0.01 0.01 0.01 0.01 0.01 0.00 0.01
0.00 0.00 0.00 0.00 0.00 0.00 0.00 0.00 0.02 0.02 0.07 0.16 0.05 0.03 0.08 0.08 0.05 0.03 0.02 0.01 0.01 0.02 0.01 0.01 0.01 0.00 0.00 0.00 0.00 0.01 0.03 0.02 0.01 0.01 0.01 0.02 0.02 0.02 0.02 0.02 0.02 0.01 0.01 0.01
0.01 0.01 0.01 0.00 0.00 0.01 0.01 0.02 0.07 0.12 0.22 0.16 0.03 0.01 0.02 0.01 0.00 0.00 0.01 0.00 0.00 0.00 0.00 0.00 0.00 0.00 0.00 0.00 0.00 0.00 0.02 0.02 0.02 0.01 0.01 0.02 0.02 0.01 0.02 0.01 0.01 0.01 0.00 0.00
0.01 0.02 0.01 0.00 0.00 0.01 0.01 0.01 0.04 0.08 0.13 0.09 0.04 0.01 0.00 0.00 0.00 0.00 0.01 0.00 0.00 0.00 0.00 0.00 0.00 0.01 0.00 0.00 0.00 0.00 0.01 0.02 0.01 0.01 0.01 0.01 0.01 0.01 0.01 0.01 0.00 0.00 0.00 0.00
0.01 0.02 0.01 0.00 0.00 0.00 0.00 0.00 0.01 0.01 0.02 0.04 0.03 0.02 0.01 0.00 0.00 0.00 0.00 0.00 0.00 0.00 0.00 0.00 0.01 0.01 0.00 0.00 0.00 0.00 0.00 0.01 0.01 0.00 0.00 0.00 0.00 0.00 0.00 0.00 0.00 0.00 0.00 0.00
0.00 0.01 0.01 0.00 0.00 0.00 0.00 0.00 0.00 0.00 0.02 0.05 0.04 0.03 0.03 0.01 0.00 0.00 0.00 0.00 0.00 0.00 0.00 0.00 0.00 0.00 0.00 0.00 0.00 0.00 0.00 0.00 0.00 0.00 0.00 0.00 0.00 0.00 0.00 0.00 0.00 0.00 0.00 0.00
0.00 0.00 0.01 0.00 0.00 0.00 0.00 0.00 0.00 0.00 0.00 0.04 0.11 0.07 0.02 0.00 0.00 0.00 0.00 0.00 0.00 0.00 0.00 0.00 0.00 0.00 0.00 0.00 0.00 0.00 0.00 0.00 0.00 0.00 0.00 0.00 0.00 0.00 0.00 0.00 0.00 0.00 0.00 0.00
0.00 0.00 0.00 0.01 0.01 0.01 0.00 0.00 0.00 0.00 0.00 0.01 0.04 0.04 0.01 0.00 0.00 0.00 0.00 0.00 0.00 0.00 0.00 0.00 0.00 0.00 0.00 0.00 0.00 0.00 0.00 0.00 0.00 0.00 0.00 0.00 0.00 0.00 0.00 0.00 0.00 0.00 0.00 0.00
0.00 0.00 0.00 0.03 0.06 0.05 0.01 0.00 0.00 0.00 0.00 0.00 0.02 0.02 0.01 0.00 0.00 0.00 0.00 0.00 0.00 0.00 0.00 0.00 0.00 0.00 0.00 0.00 0.00 0.00 0.00 0.00 0.00 0.00 0.00 0.00 0.00 0.00 0.00 0.00 0.00 0.00 0.00 0.01
0.00 0.00 0.01 0.08 0.15 0.11 0.04 0.01 0.00 0.00 0.00 0.00 0.01 0.01 0.01 0.00 0.00 0.00 0.00 0.00 0.00 0.00 0.00 0.00 0.00 0.00 0.00 0.00 0.00 0.00 0.00 0.00 0.00 0.00 0.00 0.00 0.00 0.00 0.00 0.00 0.00 0.00 0.00 0.01
0.00 0.00 0.00 0.02 0.04 0.02 0.02 0.01 0.00 0.00 0.00 0.00 0.01 0.01 0.01 0.01 0.02 0.01 0.00 0.00 0.00 0.00 0.00 0.00 0.00 0.00 0.00 0.00 0.00 0.00 0.00 0.00 0.00 0.00 0.00 0.00 0.00 0.00 0.00 0.00 0.00 0.00 0.00 0.00
0.00 0.00 0.00 0.00 0.01 0.01 0.00 0.00 0.00 0.00 0.00 0.00 0.01 0.00 0.00 0.00 0.01 0.01 0.00 0.00 0.00 0.00 0.00 0.00 0.00 0.00 0.00 0.00 0.00 0.00 0.00 0.00 0.00 0.00 0.00 0.00 0.00 0.00 0.00 0.00 0.00 0.00 0.00 0.00
0.00 0.00 0.00 0.00 0.01 0.01 0.00 0.00 0.00 0.00 0.00 0.00 0.00 0.00 0.00 0.00 0.00 0.00 0.00 0.00 0.00 0.00 0.00 0.00 0.00 0.00 0.00 0.00 0.00 0.00 0.00 0.00 0.00 0.00 0.00 0.00 0.00 0.00 0.00 0.00 0.00 0.00 0.00 0.01
0.01 0.00 0.00 0.00 0.01 0.02 0.01 0.00 0.00 0.00 0.00 0.00 0.00 0.00 0.00 0.00 0.00 0.00 0.00 0.00 0.00 0.00 0.00 0.00 0.00 0.00 0.00 0.00 0.00 0.00 0.00 0.00 0.00 0.00 0.00 0.00 0.00 0.00 0.00 0.00 0.00 0.01 0.01 0.01
0.02 0.01 0.00 0.01 0.02 0.02 0.01 0.01 0.00 0.00 0.00 0.00 0.00 0.00 0.00 0.00 0.00 0.00 0.00 0.00 0.00 0.00 0.00 0.00 0.00 0.00 0.00 0.00 0.00 0.00 0.00 0.00 0.00 0.00 0.00 0.00 0.00 0.00 0.00 0.00 0.00 0.01 0.01 0.01
0.01 0.00 0.00 0.00 0.01 0.02 0.03 0.02 0.01 0.00 0.00 0.00 0.00 0.00 0.00 0.00 0.00 0.00 0.00 0.00 0.00 0.00 0.00 0.00 0.00 0.00 0.00 0.00 0.00 0.00 0.00 0.00 0.00 0.00 0.00 0.00 0.00 0.00 0.00 0.00 0.00 0.01 0.01 0.01
0.01 0.01 0.00 0.01 0.01 0.01 0.03 0.03 0.01 0.02 0.02 0.01 0.00 0.00 0.00 0.00 0.00 0.00 0.00 0.00 0.00 0.00 0.00 0.00 0.00 0.00 0.00 0.00 0.00 0.00 0.00 0.00 0.00 0.00 0.00 0.00 0.00 0.00 0.00 0.00 0.00 0.01 0.01 0.01
0.01 0.02 0.01 0.01 0.03 0.04 0.03 0.05 0.05 0.05 0.03 0.01 0.00 0.00 0.00 0.00 0.00 0.00 0.00 0.00 0.00 0.00 0.00 0.00 0.00 0.00 0.00 0.00 0.00 0.00 0.00 0.00 0.00 0.00 0.00 0.00 0.00 0.00 0.00 0.00 0.01 0.01 0.01 0.02
0.00 0.01 0.02 0.04 0.06 0.06 0.04 0.05 0.07 0.06 0.04 0.01 0.00 0.00 0.00 0.00 0.00 0.00 0.00 0.00 0.00 0.00 0.00 0.00 0.00 0.00 0.00 0.00 0.00 0.00 0.00 0.00 0.00 0.00 0.00 0.00 0.00 0.00 0.00 0.00 0.00 0.01 0.01 0.01
0.01 0.01 0.04 0.09 0.07 0.09 0.08 0.06 0.04 0.03 0.01 0.00 0.00 0.00 0.00 0.00 0.00 0.00 0.00 0.00 0.00 0.00 0.00 0.00 0.00 0.00 0.00 0.00 0.00 0.00 0.00 0.00 0.00 0.00 0.00 0.00 0.00 0.00 0.00 0.00 0.00 0.00 0.00 0.00
0.04 0.02 0.02 0.09 0.07 0.03 0.03 0.03 0.03 0.01 0.00 0.00 0.00 0.00 0.00 0.00 0.00 0.00 0.00 0.00 0.00 0.00 0.00 0.00 0.00 0.00 0.00 0.00 0.00 0.00 0.00 0.00 0.00 0.00 0.00 0.00 0.00 0.00 0.00 0.00 0.00 0.00 0.00 0.00
0.03 0.02 0.03 0.06 0.06 0.03 0.04 0.03 0.02 0.01 0.00 0.00 0.00 0.00 0.00 0.00 0.00 0.00 0.00 0.00 0.00 0.00 0.00 0.00 0.00 0.00 0.00 0.00 0.00 0.00 0.00 0.00 0.00 0.00 0.00 0.00 0.00 0.00 0.00 0.00 0.00 0.00 0.00 0.00
MSLP
1009.39 1009.63 1009.72 1009.70 1009.65 1009.63 1009.71 1009.94 1010.32 1010.82 1011.38 1011.91 1012.36 1012.67 1012.79 1012.73 1012.53 1012.23 1011.89 1011.58 1011.35 1011.22 1011.22 1011.33 1011.53 1011.79 1012.08 1012.37 1012.65 1012.89 1013.11 1013.29 1013.45 1013.58 1013.70 1013.79 1013.87 1013.92 1013.95 1013.98 1014.01 1014.05 1014.12 1014.24
1009.55 1009.70 1009.69 1009.60 1009.51 1009.49 1009.61 1009.92 1010.39 1010.98 1011.62 1012.22 1012.71 1013.02 1013.14 1013.06 1012.84 1012.53 1012.21 1011.92 1011.72 1011.62 1011.63 1011.73 1011.89 1012.08 1012.29 1012.49 1012.68 1012.87 1013.06 1013.26 1013.45 1013.64 1013.81 1013.94 1014.02 1014.05 1014.04 1013.99 1013.93 1013.90 1013.91 1013.99
1009.41 1009.46 1009.38 1009.25 1009.16 1009.19 1009.39 1009.79 1010.37 1011.05 1011.75 1012.39 1012.87 1013.16 1013.23 1013.11 1012.86 1012.54 1012.22 1011.97 1011.81 1011.75 1011.79 1011.90 1012.05 1012.20 1012.35 1012.49 1012.63 1012.79 1012.98 1013.20 1013.45 1013.71 1013.94 1014.12 1014.24 1014.27 1014.22 1014.11 1013.99 1013.88 1013.83 1013.86
1008.98 1008.95 1008.82 1008.70 1008.65 1008.78 1009.10 1009.63 1010.33 1011.09 1011.84 1012.48 1012.93 1013.15 1013.14 1012.94 1012.62 1012.27 1011.95 1011.72 1011.60 1011.60 1011.69 1011.84 1012.00 1012.15 1012.28 1012.40 1012.52 1012.68 1012.89 1013.15 1013.46 1013.79 1014.09 1014.34 1014.49 1014.53 1014.47 1014.33 1014.16 1013.99 1013.89 1013.87
1008.38 1008.28 1008.14 1008.05 1008.11 1008.37 1008.84 1009.52 1010.34 1011.19 1011.97 1012.58 1012.96 1013.08 1012.95 1012.64 1012.22 1011.80 1011.45 1011.23 1011.15 1011.21 1011.36 1011.57 1011.78 1011.97 1012.13 1012.26 1012.40 1012.58 1012.82 1013.12 1013.49 1013.87 1014.24 1014.54 1014.74 1014.81 1014.75 1014.60 1014.40 1014.20 1014.05 1013.99
1007.77 1007.62 1007.50 1007.49 1007.66 1008.07 1008.71 1009.54 1010.47 1011.39 1012.18 1012.75 1013.03 1013.02 1012.75 1012.29 1011.75 1011.24 1010.84 1010.60 1010.55 1010.66 1010.88 1011.17 1011.46 1011.72 1011.94 1012.12 1012.30 1012.52 1012.79 1013.13 1013.53 1013.96 1014.37 1014.71 1014.94 1015.04 1015.00 1014.86 1014.66 1014.44 1014.27 1014.17
1007.31 1007.15 1007.07 1007.15 1007.45 1008.00 1008.78 1009.73 1010.74 1011.70 1012.47 1012.97 1013.14 1012.99 1012.56 1011.96 1011.29 1010.67 1010.21 1009.95 1009.91 1010.06 1010.35 1010.73 1011.11 1011.46 1011.76 1012.01 1012.25 1012.50 1012.80 1013.16 1013.58 1014.02 1014.44 1014.79 1015.05 1015.17 1015.16 1015.04 1014.85 1014.65 1014.47 1014.35
1007.15 1007.00 1006.97 1007.13 1007.53 1008.18 1009.05 1010.07 1011.11 1012.05 1012.77 1013.18 1013.24 1012.96 1012.39 1011.65 1010.87 1010.16 1009.64 1009.35 1009.31 1009.50 1009.87 1010.32 1010.80 1011.24 1011.63 1011.96 1012.25 1012.54 1012.86 1013.22 1013.62 1014.04 1014.44 1014.79 1015.04 1015.17 1015.19 1015.09 1014.94 1014.76 1014.59 1014.48
1007.32 1007.21 1007.23 1007.44 1007.89 1008.58 1009.47 1010.47 1011.47 1012.34 1012.98 1013.29 1013.23 1012.84 1012.17 1011.34 1010.49 1009.73 1009.16 1008.86 1008.84 1009.06 1009.48 1010.00 1010.56 1011.09 1011.56 1011.96 1012.31 1012.62 1012.94 1013.27 1013.64 1014.01 1014.37 1014.69 1014.92 1015.05 1015.08 1015.02 1014.90 1014.75 1014.61 1014.51
1007.75 1007.70 1007.76 1008.00 1008.45 1009.10 1009.91 1010.82 1011.70 1012.45 1012.96 1013.16 1013.01 1012.55 1011.83 1010.97 1010.10 1009.34 1008.79 1008.50 1008.50 1008.76 1009.22 1009.80 1010.42 1011.02 1011.55 1012.00 1012.38 1012.71 1013.01 1013.32 1013.63 1013.95 1014.25 1014.51 1014.71 1014.83 1014.87 1014.83 1014.75 1014.64 1014.53 1014.45
1008.31 1008.33 1008.43 1008.66 1009.05 1009.59 1010.26 1010.99 1011.68 1012.26 1012.61 1012.70 1012.48 1011.99 1011.29 1010.47 1009.66 1008.96 1008.47 1008.24 1008.28 1008.58 1009.07 1009.69 1010.34 1010.98 1011.56 1012.04 1012.44 1012.78 1013.06 1013.33 1013.59 1013.84 1014.08 1014.28 1014.45 1014.55 1014.59 1014.57 1014.52 1014.44 1014.36 1014.30
1008.82 1008.92 1009.05 1009.24 1009.53 1009.92 1010.38 1010.88 1011.35 1011.71 1011.91 1011.88 1011.62 1011.15 1010.51 1009.80 1009.12 1008.55 1008.17 1008.03 1008.14 1008.47 1009.00 1009.63 1010.30 1010.95 1011.54 1012.05 1012.46 1012.79 1013.06 1013.29 1013.50 1013.70 1013.88 1014.04 1014.17 1014.25 1014.29 1014.29 1014.25 1014.20 1014.15 1014.11
1009.14 1009.32 1009.48 1009.63 1009.80 1010.01 1010.25 1010.50 1010.72 1010.86 1010.88 1010.76 1010.48 1010.06 1009.54 1008.98 1008.47 1008.07 1007.84 1007.82 1008.01 1008.40 1008.94 1009.58 1010.24 1010.89 1011.48 1011.98 1012.39 1012.72 1012.98 1013.19 1013.37 1013.53 1013.67 1013.80 1013.90 1013.97 1014.01 1014.01 1013.99 1013.96 1013.91 1013.87
1009.21 1009.47 1009.65 1009.76 1009.83 1009.87 1009.90 1009.90 1009.88 1009.81 1009.68 1009.47 1009.18 1008.83 1008.44 1008.06 1007.75 1007.54 1007.48 1007.59 1007.87 1008.30 1008.86 1009.49 1010.14 1010.77 1011.34 1011.83 1012.24 1012.57 1012.82 1013.03 1013.20 1013.34 1013.47 1013.57 1013.66 1013.72 1013.75 1013.76 1013.75 1013.72 1013.67 1013.62
1009.05 1009.38 1009.59 1009.68 1009.67 1009.57 1009.41 1009.21 1008.98 1008.73 1008.46 1008.17 1007.88 1007.60 1007.34 1007.13 1007.00 1006.97 1007.07 1007.31 1007.68 1008.16 1008.72 1009.34 1009.96 1010.56 1011.11 1011.60 1012.00 1012.34 1012.60 1012.82 1012.99 1013.14 1013.26 1013.36 1013.44 1013.49 1013.52 1013.53 1013.51 1013.48 1013.42 1013.35
1008.75 1009.13 1009.37 1009.46 1009.41 1009.22 1008.93 1008.58 1008.19 1007.78 1007.40 1007.05 1006.75 1006.51 1006.34 1006.27 1006.29 1006.41 1006.65 1006.99 1007.42 1007.94 1008.51 1009.11 1009.71 1010.29 1010.82 1011.29 1011.70 1012.05 1012.33 1012.57 1012.76 1012.92 1013.05 1013.15 1013.23 1013.28 1013.30 1013.30 1013.27 1013.22 1013.14 1013.04
1008.42 1008.84 1009.11 1009.22 1009.15 1008.93 1008.57 1008.12 1007.62 1007.11 1006.64 1006.22 1005.89 1005.67 1005.55 1005.55 1005.67 1005.89 1006.22 1006.62 1007.11 1007.64 1008.21 1008.80 1009.38 1009.94 1010.46 1010.94 1011.36 1011.73 1012.04 1012.30 1012.52 1012.70 1012.84 1012.94 1013.02 1013.06 1013.07 1013.05 1013.00 1012.93 1012.82 1012.69
1008.16 1008.58 1008.88 1009.02 1008.98 1008.76 1008.39 1007.90 1007.35 1006.77 1006.23 1005.75 1005.38 1005.12 1005.01 1005.03 1005.17 1005.43 1005.79 1006.22 1006.72 1007.26 1007.83 1008.41 1008.98 1009.53 1010.06 1010.55 1011.00 1011.39 1011.74 1012.03 1012.28 1012.47 1012.62 1012.72 1012.79 1012.81 1012.80 1012.76 1012.68 1012.57 1012.44 1012.27
1007.99 1008.41 1008.72 1008.89 1008.89 1008.71 1008.37 1007.89 1007.32 1006.72 1006.13 1005.60 1005.17 1004.86 1004.69 1004.67 1004.78 1005.02 1005.36 1005.79 1006.28 1006.81 1007.37 1007.95 1008.52 1009.09 1009.63 1010.14 1010.62 1011.06 1011.44 1011.76 1012.03 1012.23 1012.38 1012.48 1012.52 1012.52 1012.48 1012.40 1012.29 1012.15 1011.98 1011.80
1007.89 1008.27 1008.57 1008.77 1008.82 1008.70 1008.42 1007.99 1007.45 1006.85 1006.24 1005.67 1005.17 1004.79 1004.55 1004.45 1004.49 1004.66 1004.95 1005.33 1005.79 1006.30 1006.85 1007.43 1008.02 1008.60 1009.17 1009.72 1010.24 1010.71 1011.12 1011.48 1011.76 1011.97 1012.12 1012.19 1012.21 1012.17 1012.09 1011.97 1011.82 1011.65 1011.47 1011.26
1007.78 1008.10 1008.38 1008.59 1008.68 1008.64 1008.43 1008.08 1007.61 1007.05 1006.44 1005.85 1005.30 1004.85 1004.51 1004.32 1004.26 1004.35 1004.56 1004.88 1005.29 1005.77 1006.31 1006.89 1007.49 1008.10 1008.70 1009.29 1009.84 1010.34 1010.79 1011.16 1011.46 1011.67 1011.80 1011.85 1011.83 1011.75 1011.63 1011.47 1011.29 1011.10 1010.89 1010.69
1007.57 1007.82 1008.07 1008.28 1008.41 1008.44 1008.33 1008.07 1007.68 1007.19 1006.62 1006.03 1005.46 1004.95 1004.54 1004.26 1004.11 1004.10 1004.22 1004.47 1004.83 1005.28 1005.79 1006.37 1006.97 1007.60 1008.22 1008.84 1009.42 1009.95 1010.41 1010.79 1011.09 1011.29 1011.41 1011.43 1011.38 1011.26 1011.10 1010.90 1010.70 1010.48 1010.28 1010.08
1007.22 1007.39 1007.60 1007.81 1007.98 1008.07 1008.06 1007.91 1007.62 1007.22 1006.73 1006.18 1005.62 1005.09 1004.63 1004.28 1004.05 1003.96 1004.01 1004.19 1004.48 1004.88 1005.37 1005.92 1006.52 1007.14 1007.77 1008.39 1008.98 1009.51 1009.98 1010.36 1010.65 1010.84 1010.93 1010.93 1010.85 1010.70 1010.50 1010.28 1010.05 1009.84 1009.64 1009.47
1006.74 1006.85 1007.02 1007.23 1007.43 1007.59 1007.66 1007.62 1007.46 1007.17 1006.77 1006.30 1005.78 1005.27 1004.80 1004.41 1004.14 1003.99 1003.97 1004.08 1004.32 1004.67 1005.11 1005.62 1006.19 1006.78 1007.38 1007.97 1008.54 1009.05 1009.50 1009.86 1010.13 1010.30 1010.37 1010.35 1010.24 1010.07 1009.85 1009.62 1009.38 1009.17 1008.99 1008.84
1006.21 1006.27 1006.41 1006.62 1006.85 1007.07 1007.23 1007.31 1007.26 1007.09 1006.81 1006.43 1005.99 1005.54 1005.09 1004.71 1004.42 1004.24 1004.18 1004.24 1004.42 1004.70 1005.08 1005.53 1006.03 1006.56 1007.10 1007.63 1008.14 1008.60 1009.00 1009.32 1009.56 1009.70 1009.75 1009.70 1009.58 1009.40 1009.17 1008.94 1008.70 1008.50 1008.34 1008.22
1005.74 1005.79 1005.92 1006.13 1006.39 1006.67 1006.90 1007.07 1007.14 1007.09 1006.92 1006.66 1006.32 1005.94 1005.55 1005.21 1004.93 1004.74 1004.65 1004.68 1004.80 1005.02 1005.32 1005.68 1006.09 1006.52 1006.96 1007.40 1007.81 1008.19 1008.52 1008.78 1008.96 1009.07 1009.08 1009.02 1008.89 1008.71 1008.49 1008.26 1008.04 1007.85 1007.71 1007.62
Thickness
5814 5799 5792 5802 5811 5810 5805 5796 5786 5789 5801 5789 5774 5763 5764 5771 5766 5760 5758 5754 5752 5752 5756 5757 5757 5756 5755 5752 5749 5747 5745 5741 5739 5736 5734 5731 5730 5729 5729 5726 5723 5721 5718 5716
5803 5792 5808 5820 5819 5814 5804 5790 5785 5791 5800 5788 5766 5756 5761 5767 5765 5762 5758 5754 5751 5750 5750 5751 5752 5753 5750 5748 5746 5745 5742 5740 5738 5735 5732 5731 5728 5727 5727 5724 5720 5718 5715 5712
5800 5809 5825 5818 5810 5801 5797 5790 5787 5786 5790 5783 5759 5743 5748 5757 5765 5764 5761 5758 5756 5753 5750 5750 5750 5750 5750 5747 5746 5745 5741 5738 5736 5734 5732 5729 5726 5723 5721 5719 5716 5714 5711 5708
5810 5820 5819 5811 5805 5803 5787 5802 5796 5790 5774 5753 5752 5724 5737 5750 5754 5759 5759 5759 5757 5757 5755 5752 5751 5750 5749 5749 5748 5744 5740 5737 5734 5731 5727 5723 5719 5715 5715 5714 5712 5710 5707 5705
5805 5813 5811 5804 5807 5807 5799 5806 5793 5782 5762 5743 5745 5734 5734 5750 5745 5752 5759 5760 5760 5759 5758 5756 5755 5753 5753 5752 5748 5744 5739 5735 5732 5729 5725 5720 5716 5714 5712 5709 5707 5705 5704 5702
5812 5822 5819 5814 5818 5817 5812 5800 5782 5766 5745 5716 5740 5743 5731 5749 5751 5754 5760 5764 5763 5763 5762 5760 5758 5756 5754 5753 5749 5744 5737 5732 5729 5726 5722 5717 5713 5709 5705 5702 5700 5699 5699 5698
5795 5804 5815 5819 5803 5808 5801 5778 5748 5726 5710 5714 5755 5755 5750 5769 5773 5769 5767 5767 5769 5767 5764 5760 5757 5754 5752 5750 5747 5743 5736 5729 5726 5723 5719 5714 5710 5706 5702 5700 5697 5695 5693 5691
5780 5770 5796 5809 5803 5795 5794 5783 5753 5731 5726 5735 5755 5750 5764 5785 5785 5782 5778 5776 5773 5770 5767 5763 5760 5756 5753 5750 5745 5740 5733 5727 5723 5720 5715 5711 5707 5704 5701 5697 5693 5690 5688 5686
5784 5774 5804 5815 5820 5810 5790 5788 5796 5774 5761 5743 5748 5756 5767 5785 5783 5781 5778 5776 5773 5771 5769 5766 5762 5758 5754 5749 5744 5739 5731 5725 5721 5717 5713 5709 5706 5701 5697 5693 5690 5688 5684 5681
5803 5781 5798 5810 5815 5815 5808 5801 5791 5773 5748 5731 5736 5745 5746 5763 5772 5777 5777 5775 5774 5774 5770 5767 5762 5758 5753 5748 5743 5737 5731 5724 5720 5716 5712 5710 5705 5701 5697 5692 5687 5683 5679 5676
5811 5786 5787 5794 5787 5785 5794 5794 5788 5781 5773 5741 5716 5733 5773 5775 5781 5779 5779 5779 5777 5774 5772 5767 5762 5757 5751 5746 5741 5734 5729 5724 5719 5715 5711 5706 5702 5699 5695 5690 5686 5681 5676 5672
5808 5793 5777 5781 5794 5799 5793 5792 5786 5765 5760 5762 5746 5746 5790 5791 5792 5789 5786 5784 5782 5778 5774 5769 5762 5755 5749 5743 5739 5734 5729 5723 5719 5715 5710 5705 5701 5696 5691 5687 5682 5677 5672 5667
5802 5782 5762 5759 5757 5763 5768 5782 5788 5784 5774 5764 5748 5749 5792 5795 5794 5793 5789 5785 5782 5777 5773 5767 5760 5753 5747 5742 5737 5732 5727 5722 5718 5713 5708 5703 5698 5693 5687 5682 5678 5673 5668 5663
5803 5780 5764 5744 5738 5741 5747 5766 5783 5781 5767 5764 5761 5761 5776 5783 5785 5786 5787 5785 5780 5774 5769 5762 5755 5749 5745 5739 5734 5730 5725 5722 5716 5710 5704 5699 5695 5690 5685 5680 5674 5669 5664 5658
5795 5776 5775 5772 5769 5763 5765 5772 5782 5784 5783 5775 5774 5773 5780 5784 5786 5787 5785 5783 5777 5770 5764 5759 5752 5747 5742 5737 5732 5728 5724 5719 5713 5707 5701 5697 5693 5688 5682 5676 5671 5665 5659 5654
5786 5772 5772 5768 5773 5771 5771 5782 5789 5790 5792 5789 5786 5784 5797 5796 5793 5787 5784 5780 5773 5768 5764 5759 5753 5746 5740 5735 5731 5726 5721 5716 5710 5704 5699 5695 5690 5684 5679 5673 5668 5662 5655 5649
5775 5770 5761 5759 5772 5771 5766 5788 5792 5792 5797 5793 5780 5785 5795 5788 5785 5783 5782 5779 5773 5769 5765 5759 5753 5746 5739 5735 5730 5723 5719 5714 5707 5702 5697 5693 5687 5681 5676 5670 5664 5656 5650 5644
5769 5762 5761 5756 5754 5734 5771 5806 5805 5797 5797 5801 5796 5795 5794 5790 5790 5789 5786 5779 5773 5770 5765 5760 5754 5747 5740 5735 5729 5723 5718 5711 5705 5700 5695 5690 5684 5678 5672 5665 5658 5651 5645 5638
5780 5763 5756 5750 5741 5747 5773 5790 5792 5785 5783 5799 5795 5793 5793 5793 5786 5782 5786 5782 5775 5771 5766 5760 5754 5747 5740 5733 5727 5720 5714 5708 5703 5697 5692 5687 5680 5673 5666 5659 5653 5646 5639 5632
5776 5768 5756 5752 5739 5732 5760 5784 5795 5783 5765 5794 5794 5788 5787 5783 5764 5766 5781 5779 5774 5769 5764 5757 5752 5745 5736 5730 5724 5715 5709 5704 5699 5694 5689 5683 5676 5668 5661 5654 5648 5641 5634 5627
5749 5751 5750 5748 5745 5756 5771 5785 5784 5749 5751 5783 5788 5784 5782 5775 5771 5774 5777 5773 5769 5764 5759 5753 5747 5739 5731 5726 5718 5709 5704 5699 5696 5691 5685 5678 5671 5664 5658 5651 5645 5637 5629 5623
5749 5746 5745 5747 5735 5737 5768 5772 5755 5750 5768 5775 5781 5781 5778 5776 5775 5774 5771 5766 5762 5757 5753 5747 5739 5732 5727 5721 5713 5704 5699 5697 5692 5685 5678 5672 5666 5660 5655 5647 5640 5632 5625 5617
5763 5762 5757 5746 5737 5744 5752 5753 5757 5765 5765 5771 5778 5780 5778 5773 5770 5768 5764 5759 5756 5751 5747 5742 5734 5726 5721 5716 5709 5700 5696 5692 5685 5678 5672 5666 5660 5655 5649 5642 5635 5628 5621 5614
5761 5768 5758 5747 5744 5747 5747 5747 5754 5761 5766 5772 5775 5775 5773 5767 5765 5761 5756 5752 5749 5745 5741 5735 5727 5719 5713 5709 5704 5698 5692 5686 5679 5671 5666 5660 5655 5650 5645 5638 5632 5624 5617 5610
5754 5756 5749 5741 5744 5746 5746 5748 5753 5759 5765 5766 5767 5767 5765 5761 5758 5754 5748 5745 5742 5738 5734 5728 5720 5713 5708 5703 5698 5693 5688 5680 5672 5665 5659 5654 5650 5646 5641 5635 5628 5621 5615 5607
5755 5749 5741 5732 5738 5738 5737 5746 5751 5750 5752 5753 5753 5753 5755 5754 5749 5746 5741 5738 5734 5730 5725 5718 5712 5707 5702 5697 5691 5686 5680 5673 5664 5657 5652 5648 5644 5641 5636 5631 5625 5620 5612 5606